User: anonymous   Login
Location: Dannhausen
(51.8650°N, 10.1026°E)
Time: 07:37:35
(UTC+00:00)
Language:

LO-87 - Orbit

View from above orbital plane
View from above orbital plane
View from above satellite
View from above satellite

Ground track
Ground track

The orbit data is extracted from the following two-line orbital elements,

1 41557U 16033B   21300.86205216  .00004042  00000-0  14039-3 0  9991
2 41557  97.3935  34.1172 0014092 121.5960  18.4409 15.30250852301773
Epoch (UTC): 27 October 2021 20:41:21
Eccentricity: 0.0014092
inclination: 97.3935°
perigee height: 465 km
apogee height: 485 km
right ascension of ascending node: 34.1172°
argument of perigee: 121.5960°
revolutions per day: 15.30250852
mean anomaly at epoch: 18.4409°
orbit number at epoch: 30177

The dashed part of the orbit path shows where the satellite is in the earth's shadow,  

DLR